MTUSI-1

operational
NORAD ID: 61775 Int'l Des: NNA 2024-199 Owner: MTUSI Country: RU
LEOCIRCULARRETROGRADESSO

MTUSI-1について

説明を読み込み中...

リアルタイム位置

3D地球を読み込み中...

次回通過

高度履歴

Altitude vs Time

uPlot chart will show altitude changes over time

軌道要素

1 61775U 24199AS 26062.16518758 .00020042 00000-0 48748-3 0 9990
2 61775 97.3163 294.2119 0014652 307.9142 52.0779 15.40886979117825
Epoch: Mar 3, 2026 • Age: 12 hours

現在のステータス

高度 463.8 km
速度 7.64 km/s
衛星直下点 79.01°N, 89.48°W
打ち上げ日 Nov 4, 2024
運用期間 1.3 years
タイプ other

技術仕様

分類 Payload
質量 10.00 kg
乾燥質量 10.00 kg
総質量 10.00 kg
長さ 0.40 m
直径 0.20 m
スパン 0.40 m
形状 Box
製造者 MTUSI
バスタイプ Cubesat 6UXL
フェーズステータス In Orbit
所有者/国 MTUSI/RU

大規模コンステレーション

Loading constellations...